Regional Weather Roundup
Issued by NWS Grand Forks, ND

Home | Current Version | Previous Version | Graphics & Text | Print | Product List | Glossary On
Versions: 1 2 3 4 5 6 7 8 9 10 11 12 13 14 15 16 17 18 19 20 21 22 23 24 25 26 27 28 29 30 31 32 33 34 35 36 37 38 39 40 41 42 43 44 45 46 47 48 49 50
000
ASUS43 KFGF 220631
RWRFGF
PRAIRIE TO PINES  WEATHER ROUNDUP
NATIONAL WEATHER SERVICE EASTERN NORTH DAKOTA/GRAND FORKS ND
1200 AM CST WED NOV 22 2017

 **SATELLITE DATA USED TO AUGMENT SKY COVER AT AUTOMATED STATIONS**
 *****  WEATHER ACROSS EASTERN NORTH DAKOTA  *****

CITY           SKY/WX    TMP DP  RH WIND       PRES   REMARKS
GRAND FORKS    FAIR      12   8  84 SW6       30.32R WCI   3
6HR MIN TEMP:  11; 6HR MAX TEMP:  17;

GRAND FRKS AFB FAIR      10   5  81 SW6       30.31R WCI   0
GRAND FRKS NWS   N/A     12 N/A N/A SW5         N/A  WCI   4
DEVILS LAKE    FAIR       7   3  84 W7        30.26S WCI  -5
6HR MIN TEMP:   7; 6HR MAX TEMP:  14;

FARGO          FAIR      12   7  80 SW7       30.34F WCI   1
WAHPETON ARPT  NOT AVBL
$$

 ***** WEATHER ACROSS CENTRAL AND WESTERN NORTH DAKOTA  *****

CITY           SKY/WX    TMP DP  RH WIND       PRES   REMARKS
BISMARCK       FAIR      10   5  80 E3        30.26F
6HR MIN TEMP:   6; 6HR MAX TEMP:  20;

MINOT          CLOUDY    11   3  70 SE5       30.19F WCI   3
6HR MIN TEMP:   4; 6HR MAX TEMP:  12;

JAMESTOWN      FAIR       7   4  87 SW3       30.28F
6HR MIN TEMP:   7; 6HR MAX TEMP:  13;

MINOT AFB      CLOUDY    10   4  77 S5        30.18F WCI   1
GARRISON         N/A     12   8  84 S3        30.18F
WILLISTON      FAIR      14   3  61 CALM      30.12F
6HR MIN TEMP:   7; 6HR MAX TEMP:  16;

DICKINSON      FAIR      18   6  59 S13       30.10F WCI   5
6HR MIN TEMP:   8; 6HR MAX TEMP:  18;

HETTINGER      FAIR      15   4  61 S5        30.18F WCI   8
6HR MIN TEMP:   7; 6HR MAX TEMP:  19;

$$

 *****  OTHER AIRPORT OBSERVATIONS IN OUR AREA  *****

CITY           SKY/WX    TMP DP  RH WIND       PRES   REMARKS
WALHALLA       FAIR      12   9  85 CALM      30.26F
GRAFTON AIRPOR FAIR       9   7  92 SW6       30.32S WCI  -1
VALLEY CITY AR FAIR       5   5 100 SW5       30.31S WCI  -4
CANDO          FAIR       3   3 100 SW5       30.24F WCI  -6
CAVALIER APRT  FAIR       7   5  92 SW6       30.27F WCI  -3
GWINNER          N/A      7   3  85 W5        30.33F WCI  -2
SHEYENNE NWR     N/A      4   0  83 W3        29.95S
ROLLA          FAIR       5   0  78 CALM      30.18F
 ***** THE ABOVE OBSERVATIONS ARE NON NWS ARE NOT QUALITY
       CONTROLLED AND MAY MIS-REPORT RAIN FOR SNOW...
$$

  *****  WEATHER ACROSS NORTHERN MINNESOTA  *****

CITY           SKY/WX    TMP DP  RH WIND       PRES   REMARKS
FLAG ISLAND    FAIR      10   7  85 NW6       30.23F WCI   1
WARROAD        FAIR      10   7  85 SW6       30.26S WCI   1
ROSEAU         FAIR      12   7  79 SW7       30.26F WCI   2
HALLOCK        FAIR       5   1  85 S6        30.29F WCI  -6
THF RVR FALLS  FAIR       9   7  92 SW6       30.31R WCI  -1
6HR MIN TEMP:   9; 6HR MAX TEMP:  15;

BAUDETTE       FAIR       9   6  88 W3        30.24R
6HR MIN TEMP:   9; 6HR MAX TEMP:  15;

WASKISH        FAIR      12  10  92 W8        30.27S WCI   1
CROOKSTON      FAIR      10   7  85 SW5       30.34R WCI   2
STEPHEN NDAWN    N/A      9   5  85 S3          N/A
GREENBUSH NDAW   N/A      9   5  85 SW5         N/A  WCI   0
$$
  *****  WEATHER ACROSS CENTRAL AND WEST MINNESOTA  *****

CITY           SKY/WX    TMP DP  RH WIND       PRES   REMARKS
FOSSTON        FAIR       7   3  85 W5        30.31R WCI  -2
BEMIDJI        FAIR      10   7  87 W5        30.27S WCI   2
6HR MIN TEMP:   9; 6HR MAX TEMP:  14;

PARK RAPIDS    FAIR      10   6  84 W6        30.27F WCI   0
6HR MIN TEMP:   9; 6HR MAX TEMP:  16;

ELBOW LAKE     FAIR      11   8  87 NW3       30.35S
WADENA         FAIR       9   7  92 W5        30.30F WCI   0
DETROIT LAKES  FAIR      14  10  85 W7        30.31S WCI   4
MOORHEAD       FAIR      10   5  79 CALM      30.36R
FERGUS FALLS   FAIR      10   7  85 W3        30.38S
MORRIS MN      FAIR      12   9  85 W3        30.35F
STAPLES        FAIR      10   7  85 W6        30.30F WCI   1
$$
  *****  WEATHER ELSEWHERE ACROSS MINNESOTA  *****

CITY           SKY/WX    TMP DP  RH WIND       PRES   REMARKS
DULUTH         FLURRIES  14   9  80 NW10      30.22R WCI   1
6HR MIN TEMP:  14; 6HR MAX TEMP:  16; 6HR PCP: TRACE;

INTRNTL FALLS    N/A      9   5  84 W7        30.24R WCI  -2
6HR MIN TEMP:   7; 6HR MAX TEMP:  16; 6HR PCP: TRACE;

ELY            FLURRIES  14  10  85 W7        30.21R WCI   4
CLOQUET        FLURRIES  18   9  68 NW7       30.25R WCI   8
WHEATON        FAIR       9   7  92 CALM      30.38F
BRAINERD       FAIR      16   9  74 NW6       30.30R WCI   7
6HR MIN TEMP:  16; 6HR MAX TEMP:  18;

HIBBING        FAIR      12   8  84 W3        30.25R
6HR MIN TEMP:  12; 6HR MAX TEMP:  15; 6HR PCP: TRACE;

ALEXANDRIA     FAIR      13   9  84 W7        30.34R WCI   3
6HR MIN TEMP:  13; 6HR MAX TEMP:  19;

SAINT CLOUD    FAIR      13   9  84 W7        30.34R WCI   3
6HR MIN TEMP:  13; 6HR MAX TEMP:  20;

MINNEAPOLIS    FAIR      19  11  70 NW10      30.34R WCI   7
6HR MIN TEMP:  19; 6HR MAX TEMP:  25;

$$

  *****  WEATHER ACROSS SOUTH DAKOTA  *****

CITY           SKY/WX    TMP DP  RH WIND       PRES   REMARKS
SIOUX FALLS    FAIR      14   7  73 W3        30.37R
6HR MIN TEMP:  12; 6HR MAX TEMP:  22;

BROOKINGS      FAIR      14   8  77 CALM      30.33F
WATERTOWN      FAIR      13   9  84 CALM      30.30F
6HR MIN TEMP:  10; 6HR MAX TEMP:  18;

HURON          FAIR      10   6  84 SW3       30.36F
6HR MIN TEMP:   8; 6HR MAX TEMP:  15;

SISSETON         N/A     10   6  84 CALM      30.35R
ABERDEEN       FAIR       3   0  87 CALM      30.36R
6HR MIN TEMP:   2; 6HR MAX TEMP:  17;

MITCHELL       FAIR      14   7  73 W3        30.38F
PIERRE         FAIR      12   7  80 CALM      30.30F
6HR MIN TEMP:  10; 6HR MAX TEMP:  20;

MOBRIDGE       FAIR      14   8  77 SE7       30.24F WCI   4
RAPID CITY     FAIR      24  18  77 SE6       30.17F WCI  17
6HR MIN TEMP:  20; 6HR MAX TEMP:  25;

$$

  *****  SOME WEATHER IN NEARBY STATES *****

CITY           SKY/WX    TMP DP  RH WIND       PRES   REMARKS
GLASGOW MT     FAIR      19   9  65 E12       29.98F WCI   7
6HR MIN TEMP:  15; 6HR MAX TEMP:  20;

GREAT FALLS MT FAIR      52  37  56 SW26G41   29.95F
6HR MIN TEMP:  45; 6HR MAX TEMP:  52; 6HR PCP: TRACE;

CHEYENNE WY    FAIR      33  32  96 W7        30.26R
6HR MIN TEMP:  33; 6HR MAX TEMP:  36;

SCOTTSBLUFF NE FAIR      32  24  72 E7        30.21F
6HR MIN TEMP:  29; 6HR MAX TEMP:  43;

OMAHA NE       FAIR      19  10  68 NW7       30.43R WCI  10
6HR MIN TEMP:  19; 6HR MAX TEMP:  28;

DES MOINES IA  FAIR      23  12  62 NW8       30.36S WCI  14
6HR MIN TEMP:  22; 6HR MAX TEMP:  31;

DAVENPORT IA   FAIR      21  16  81 W7        30.32R WCI  12
6HR MIN TEMP:  20; 6HR MAX TEMP:  29;

CHICAGO IL     FAIR      27  15  61 NW9       30.21R WCI  18
6HR MIN TEMP:  27; 6HR MAX TEMP:  33;

EAU CLAIRE WI  FAIR      17   8  67 N7        30.29R WCI   8
6HR MIN TEMP:  17; 6HR MAX TEMP:  24;

LA CROSSE WI   FAIR      25  12  58 NW13      30.29R WCI  14
6HR MIN TEMP:  24; 6HR MAX TEMP:  28;

$$

  *****  SOME NATIONAL WEATHER *****

CITY           SKY/WX    TMP DP  RH WIND       PRES   REMARKS
LA GUARDIA NY  NOT AVBL
RALEIGH NC     CLOUDY    53  49  86 CALM      29.99F
6HR MIN TEMP:  53; 6HR MAX TEMP:  58;

ATLANTA GA     CLOUDY    56  54  93 CALM      30.03R
6HR MIN TEMP:  55; 6HR MAX TEMP:  61;

NEW ORLEANS LA MOCLDY    63  57  81 N6        30.04R
6HR MIN TEMP:  63; 6HR MAX TEMP:  66; 6HR PCP: TRACE;

OKLAHOMA CITY  FAIR      38  11  32 N14       30.35R
6HR MIN TEMP:  38; 6HR MAX TEMP:  55;

ALBUQUERQUE NM FAIR      50  28  42 E12       30.38S
6HR MIN TEMP:  50; 6HR MAX TEMP:  63;

SALT LAKE CITY FAIR      50  40  68 SE7       30.37S
6HR MIN TEMP:  49; 6HR MAX TEMP:  58;

LOS ANGELES CA FAIR      70  52  52 CALM      30.03F
6HR MIN TEMP:  65; 6HR



USA.gov is the U.S. government's official web portal to all federal, state and local government web resources and services.